www.pogodaiklimat.ru

Погода и климат >> Архив погоды >> Хорватия >> Сисак


ПОГОДА в Сисаке

  • Прогноз погоды в Сисаке
  • Монитор погоды в Сисаке

АРХИВ ПОГОДЫ в Сисаке

Время (UTC), дата Ветер
(напр.,м/с)
 
Видим.   Явления Облачность Т
(С)
Тd
(С)
f
(%)
Тe
(С)
Тes
(С)
Комфортность P
(гПа)
Po
(гПа)
Тmin
(С)
Tmax
(С)
R
(мм)
R24
(мм)
S
(см)
13 14.08 В 1 30 км 8/8 300 м
[Cu Sc]
+21.2 +13.2 60 +24 +26 комфорт 1017.1 1004.8
14 14.08 З 1 н/о н/о +22.2 +14.4 61 +25 +25 комфорт 1016.7 1004.3
15 14.08 С 2 н/о н/о +22.8 +14.2 58 +26 +26 жарко 1016.4 1004.1
16 14.08 С 2 н/о н/о +23.0 +14.6 59 +27 +27 душно 1016.3 1004.0
17 14.08 штиль 0 н/о н/о +22.0 +14.5 62 +25 +25 комфорт 1016.6 1004.2
18 14.08 ЮЗ 2 35 км 9/9 300 м
[Sc]
+21.3 +16.5 74 +25 +25 комфорт 1017.0 1004.7 +23.5 0.2
19 14.08 ЮЗ 1 30 км 9/9 300 м
[Sc]
+19.6 +16.5 82 +23 +23 комфорт 1017.8 1005.4
20 14.08 З 1 20 км 8/6 300 м
[Sc Ac trans]
+19.2 +16.2 83 +22 +22 комфорт 1017.8 1005.4
21 14.08 З 2 н/о н/о +17.8 +15.7 88 +18 +18 1018.0 1005.4
00 15.08 ЮЗ 1 н/о н/о +15.8 +14.7 93 +16 +16 1018.2 1005.5
03 15.08 З 2 6000 м дымка ясно +14.5 +13.6 94 +14 +14 1017.7 1005.1
04 15.08 З 1 4000 м дымка 3/0
[Ci sp]
+13.3 +12.6 96 +13 +13 1017.8 1005.1
05 15.08 З 1 8000 м дымка 3/0
[Ci sp]
+13.6 +12.7 94 +14 +15 1018.1 1005.4
06 15.08 З 1 25 км ясно +15.3 +13.4 88 +16 +19 1018.7 1006.1 +12.9
07 15.08 С 1 35 км ясно +18.3 +13.2 72 +20 +27 1018.3 1005.8
08 15.08 С 2 35 км ясно +20.6 +12.1 58 +23 +33 комфорт 1017.8 1005.4
09 15.08 С 2 35 км ясно +22.3 +13.0 56 +25 +38 комфорт 1017.3 1005.0
10 15.08 В 2 35 км 4/4 300 м
[Cu hum]
+23.5 +11.4 47 +25 +34 комфорт 1017.0 1004.7
11 15.08 ЮВ 2 35 км 5/5 300 м
[Cu hum]
+24.0 +10.3 42 +25 +33 комфорт 1016.4 1004.2
12 15.08 С 2 35 км 6/6 300 м
[Cu hum]
+23.8 +9.4 40 +25 +31 комфорт 1016.0 1003.8
13 15.08 С 2 35 км 8/8 300 м
[Cu hum]
+24.5 +9.7 39 +25 +28 комфорт 1015.7 1003.5
14 15.08 СВ 2 н/о н/о +24.9 +10.1 39 +26 +26 жарко 1015.2 1003.0
15 15.08 С 2 н/о н/о +25.0 +10.1 39 +26 +26 жарко 1014.9 1002.7
16 15.08 СВ 1 н/о н/о +24.4 +8.8 37 +25 +25 комфорт 1014.8 1002.5
17 15.08 В 1 н/о н/о +23.8 +11.2 45 +25 +25 комфорт 1014.9 1002.6
18 15.08 ЮВ 1 35 км 3/0
[Ci sp]
+22.4 +11.2 49 +25 +25 комфорт 1015.0 1002.7 +25.4
19 15.08 Ю 1 35 км 3/0
[Ci sp]
+19.3 +13.2 68 +22 +22 комфорт 1015.3 1002.9
20 15.08 ЮЗ 1 35 км ясно +17.0 +14.0 82 +18 +18 1015.8 1003.3
21 15.08 З 1 н/о н/о +15.3 +13.9 91 +16 +16 1016.4 1003.7
00 16.08 н/о н/о +13.6 +12.9 96 1016.5 1003.8
03 16.08 С 1 15 км 6/0
[Ac trans Cc]
+12.7 +11.6 93 +13 +13 1016.7 1004.0
04 16.08 ЮЗ 1 20 км 6/0
[Ac As]
+12.4 +11.5 94 +12 +12 1017.1 1004.4
05 16.08 штиль 0 20 км 6/0
[Ac As]
+12.8 +12.4 97 +12 +12 1017.3 1004.5
06 16.08 Ю 1 25 км 8/0
[Ac As Ci sp]
+14.7 +12.1 84 +15 +17 1017.8 1005.2 +12.0
07 16.08 З 2 25 км 9/4 300 м
[Sc Ac As]
+16.2 +12.8 80 +16 +18 1018.4 1005.8
08 16.08 З 2 25 км 9/5 300 м
[Sc Ac As]
+17.4 +12.9 75 +18 +20 1018.7 1006.2
09 16.08 З 2 25 км 9/4 300 м
[Sc Ac As]
+19.0 +13.6 71 +21 +24 комфорт 1019.0 1006.5
10 16.08 СЗ 2 25 км 8/3 300 м
[Sc Ac As]
+21.2 +14.1 64 +24 +29 комфорт 1018.9 1006.5
11 16.08 С 5 35 км 9/5 300 м
[Sc Ac As]
+21.4 +14.3 64 +24 +26 комфорт 1018.9 1006.5
12 16.08 СЗ 4 35 км 9/5 300 м
[Cu Sc Ac As]
+21.5 +13.9 62 +24 +26 комфорт 1018.4 1006.1
13 16.08 СЗ 3 35 км 9/5 300 м
[Cu Sc Ac As]
+21.2 +14.5 66 +24 +26 комфорт 1018.5 1006.1
14 16.08 С 1 н/о н/о +22.7 +12.7 53 +25 +25 комфорт 1017.7 1005.3
15 16.08 В 1 н/о н/о +23.1 +12.8 52 +26 +26 жарко 1017.2 1004.9
16 16.08 С 1 н/о н/о +23.5 +13.4 53 +26 +26 жарко 1017.1 1004.8
18 16.08 З 1 35 км 3/0
[Ci sp]
+21.8 +11.8 53 +24 +24 комфорт 1017.3 1005.0 +23.7
19 16.08 штиль 0 35 км 1/0
[Ci sp]
+18.4 +13.6 74 +19 +19 1018.1 1005.6
20 16.08 штиль 0 35 км 1/0
[Ci fib]
+17.2 +14.4 84 +17 +17 1018.9 1006.4
03 17.08 ЮВ 1 15 км ясно +12.8 +12.3 97 +13 +13 1018.3 1005.6
04 17.08 Ю 1 20 км ясно +12.4 +12.0 97 +12 +12 1018.5 1005.8
05 17.08 ЮЗ 1 30 км 1/0
[Ci fib]
+13.5 +13.1 97 +14 +14 1018.5 1005.8
06 17.08 В 1 35 км 3/1 300 м
[Cu hum Ci fib]
+16.5 +14.7 89 +17 +20 1018.7 1006.1 +12.4
07 17.08 ЮЗ 1 35 км 5/1 300 м
[Cu hum Ac trans Ci fib]
+18.7 +14.5 77 +21 +25 комфорт 1019.0 1006.5
08 17.08 ЮВ 1 35 км 5/1 300 м
[Cu hum Ci fib]
+20.6 +14.0 66 +24 +33 комфорт 1018.8 1006.4
09 17.08 ЮВ 1 35 км 8/1 300 м
[Cu hum Ac trans Ci sp]
+22.4 +14.3 60 +26 +34 жарко 1018.2 1005.9
10 17.08 В 1 35 км 8/1 300 м
[Cu hum Ac trans Ci sp]
+24.4 +15.2 56 +27 +37 жарко 1017.8 1005.6
11 17.08 Ю 2 35 км 6/3 300 м
[Cu hum Ac trans Ci fib]
+25.1 +14.2 51 +28 +36 жарко 1017.4 1005.2
12 17.08 Ю 1 35 км 4/3 300 м
[Cu hum Ci fib]
+26.2 +13.7 46 +28 +40 жарко 1016.9 1004.8
13 17.08 Ю 2 35 км 3/1 300 м
[Cu hum Ci fib]
+27.2 +12.6 40 +29 +39 жарко 1016.3 1004.2
14 17.08 ЮЗ 2 н/о н/о +28.1 +10.4 33 +29 +29 жарко 1015.9 1003.8
15 17.08 ЮВ 2 н/о н/о +27.9 +9.7 32 +28 +28 жарко 1015.4 1003.3
16 17.08 ЮВ 1 н/о н/о +28.1 +9.9 32 +28 +28 жарко 1015.3 1003.2
17 17.08 В 2 н/о н/о +26.2 +12.7 43 +28 +28 жарко 1015.2 1003.0
18 17.08 В 1 35 км 6/0
[Ac trans Ci fib]
+24.4 +15.2 56 +27 +27 жарко 1015.2 1003.0 +28.6
19 17.08 В 1 35 км 4/0
[Ac trans Ci fib]
+20.4 +17.1 81 +25 +25 комфорт 1015.7 1003.4
20 17.08 штиль 0 30 км 1/0
[Ci fib]
+19.0 +17.0 88 +20 +20 1015.9 1003.5
21 17.08 н/о н/о +17.6 +15.7 89 1016.0 1003.4
00 18.08 Ю 1 н/о н/о +15.9 +14.3 90 +17 +17 1016.0 1003.4
03 18.08 Ю 1 10 км 5/0
[Ac trans Ci fib]
+14.3 +13.8 97 +15 +15 1016.0 1003.4
04 18.08 штиль 0 25 км 6/0
[Ac trans Ci fib]
+14.2 +13.8 97 +14 +14 1015.9 1003.3
05 18.08 штиль 0 30 км 4/0
[Ac trans Ci fib]
+14.4 +14.0 97 +14 +15 1016.2 1003.6
06 18.08 СВ 1 30 км 4/0
[Ac trans Ci fib]
+17.4 +15.1 86 +18 +21 1016.4 1003.9 +14.2
07 18.08 СВ 1 35 км 3/0
[Ac lent Ci fib]
+20.2 +15.6 75 +24 +30 комфорт 1016.6 1004.2
08 18.08 В 1 35 км 3/0
[Ac lent Ci fib]
+23.0 +15.3 62 +27 +37 душно 1016.5 1004.2
09 18.08 Ю 1 35 км 3/0
[Ci fib]
+26.0 +15.1 51 +29 +43 душно 1016.0 1003.9
10 18.08 Ю 2 35 км 1/0
[Ci fib]
+27.3 +14.7 46 +30 +44 душно 1015.7 1003.6
11 18.08 ЮВ 2 35 км ясно +28.8 +13.9 40 +31 +46 жарко 1015.4 1003.4
12 18.08 ЮЗ 2 35 км ясно +30.0 +14.5 39 +32 +47 жарко 1015.1 1003.1
13 18.08 З 2 35 км ясно +30.8 +13.4 35 +32 +44 жарко 1014.7 1002.8
14 18.08 ЮЗ 3 н/о н/о +31.8 +14.5 35 +34 +34 душно 1014.5 1002.5
15 18.08 Ю 2 н/о н/о +32.3 +16.2 38 +35 +35 очень
душно
1014.1 1002.2
16 18.08 ЮЗ 1 н/о н/о +31.3 +15.8 39 +34 +34 душно 1014.0 1002.0
17 18.08 В 2 н/о н/о +29.4 +17.3 48 +33 +33 душно 1013.9 1001.8
18 18.08 ЮВ 2 35 км 3/0
[Ci fib]
+27.5 +19.3 61 +33 +33 очень
душно
1014.2 1002.2 +32.3
19 18.08 ЮВ 1 30 км 3/0
[Ac trans Ci fib]
+26.0 +19.9 69 +32 +32 очень
душно
1014.5 1002.4
20 18.08 Ю 1 30 км 3/0
[Ac trans Ci fib]
+24.2 +19.6 76 +29 +29 душно 1014.8 1002.6
21 18.08 штиль 0 н/о н/о +21.9 +18.2 80 +27 +27 душно 1014.8 1002.4
00 19.08 ЮЗ 1 н/о н/о +18.8 +17.2 90 +21 +21 комфорт 1014.9 1002.4
03 19.08 ЮВ 1 20 км 4/0
[Ci sp]
+17.4 +16.3 93 +18 +18 1015.6 1003.1
04 19.08 ЮВ 1 20 км 3/0
[Ci sp]
+16.6 +15.6 94 +17 +17 1015.3 1002.8
05 19.08 СВ 2 25 км 3/0
[Ci sp]
+17.2 +15.6 90 +18 +18 1016.0 1003.5
06 19.08 СВ 1 35 км ясно +21.2 +17.0 77 +25 +28 комфорт 1016.3 1004.0 +16.2
07 19.08 В 1 35 км ясно +24.5 +17.0 63 +28 +35 душно 1016.2 1004.0
08 19.08 В 2 35 км ясно +27.1 +16.3 52 +31 +40 душно 1016.1 1004.0
09 19.08 Ю 2 35 км ясно +28.7 +15.7 45 +32 +44 душно 1016.0 1004.0
10 19.08 Ю 2 35 км 3/0
[Ci sp]
+30.1 +16.0 43 +33 +47 душно 1016.0 1004.0
11 19.08 З 2 35 км 3/1 300 м
[Cu hum Ci sp]
+31.4 +15.6 39 +34 +47 душно 1015.6 1003.7
12 19.08 ЮЗ 3 35 км 3/3 300 м
[Cu hum]
+32.1 +15.6 37 +35 +43 очень
душно
1016.0 1004.1
13 19.08 СЗ 2 35 км 4/3 300 м
[Cu hum Ci sp]
+32.3 +15.9 37 +35 +43 очень
душно
1016.0 1004.1
14 19.08 С 2 н/о н/о +32.2 +17.7 42 +36 +36 очень
душно
1015.6 1003.6
15 19.08 СЗ 2 н/о н/о +32.3 +17.1 40 +36 +36 очень
душно
1015.5 1003.5
16 19.08 СВ 2 н/о н/о +31.5 +17.5 43 +35 +35 очень
душно
1015.3 1003.3
17 19.08 СВ 2 н/о н/о +30.5 +17.3 45 +34 +34 очень
душно
1015.5 1003.5
18 19.08 В 2 35 км 5/0
[Ci sp]
+29.0 +16.3 46 +32 +32 душно 1015.1 1003.1 +32.6
19 19.08 В 1 35 км 3/0
[Ci sp]
+26.0 +19.9 69 +32 +32 очень
душно
1015.9 1003.8
20 19.08 С 1 35 км ясно +23.5 +19.7 79 +29 +29 душно 1016.5 1004.3
21 19.08 СВ 1 н/о н/о +22.0 +19.8 87 +28 +28 душно 1017.1 1004.7
00 20.08 штиль 0 н/о н/о +20.2 +18.8 92 +23 +23 комфорт 1017.5 1005.0
03 20.08 З 1 25 км ясно +19.1 +17.8 92 +22 +22 комфорт 1017.5 1005.1
04 20.08 З 1 10 км ясно +18.5 +17.7 95 +20 +20 1018.1 1005.7
05 20.08 ЮЗ 2 25 км ясно +18.7 +17.1 90 +20 +21 1018.4 1006.0
06 20.08 З 1 35 км ясно +20.9 +18.6 87 +26 +29 душно 1018.5 1006.2 +18.5
07 20.08 СЗ 1 35 км ясно +23.0 +18.5 76 +29 +35 очень
душно
1018.9 1006.6
08 20.08 С 1 35 км ясно +25.2 +18.3 66 +30 +40 душно 1019.0 1006.8
09 20.08 С 1 35 км ясно +27.6 +18.4 57 +32 +47 очень
душно
1018.9 1006.8
10 20.08 С 2 35 км ясно +28.2 +18.6 56 +33 +48 очень
душно
1018.6 1006.5
11 20.08 СЗ 2 35 км ясно +29.9 +18.4 50 +35 +50 очень
душно
1018.2 1006.2
12 20.08 СЗ 2 35 км 3/0
[Ci fib]
+30.7 +18.6 48 +36 +49 очень
душно
1017.8 1005.9
13 20.08 СЗ 2 35 км 3/0
[Ci fib]
+31.9 +18.6 45 +37 +48 очень
душно
1017.5 1005.6
18 20.08 штиль 0 25 км 3/0
[Ci sp]
+29.7 +20.2 57 +36 +36 очень
душно
1016.6 1004.6 +32.7
19 20.08 штиль 0 25 км ясно +26.7 +21.3 72 +34 +34 очень
душно
1017.0 1004.9
20 20.08 штиль 0 25 км ясно +25.4 +21.7 80 +33 +33 очень
душно
1017.2 1005.1
03 21.08 СЗ 1 10 км ясно +20.2 +19.6 96 +25 +25 комфорт 1017.4 1005.0
04 21.08 З 1 10 км 1/0
[Ac trans]
+19.9 +19.4 97 +24 +24 комфорт 1018.2 1005.8
05 21.08 С 1 10 км 5/3 300 м
[Sc Ac trans]
+19.7 +19.4 98 +24 +24 комфорт 1019.0 1006.6
06 21.08 С 6 15 км 4/3 300 м
[Sc Ac trans]
+21.8 +19.4 86 +27 +28 душно 1019.8 1007.5 +19.5
07 21.08 С 7 30 км 5/3 300 м
[Cu Sc Ac trans]
+22.9 +16.6 68 +28 +29 душно 1020.8 1008.5
08 21.08 С 6 35 км 6/5 300 м
[Cu Sc Ac trans]
+22.8 +15.4 63 +27 +28 душно 1021.8 1009.5
09 21.08 С 6 35 км 6/6 300 м
[Cu Sc]
+23.0 +15.1 61 +27 +29 душно 1022.4 1010.1
10 21.08 С 5 35 км 5/5 300 м
[Cu Sc]
+24.0 +13.6 52 +26 +30 жарко 1022.6 1010.3
11 21.08 С 4 35 км 5/5 300 м
[Cu Sc]
+25.8 +14.7 50 +28 +33 жарко 1022.5 1010.3
12 21.08 С 6 35 км 5/4 300 м
[Cu Sc Ac trans]
+26.0 +14.7 50 +29 +32 душно 1022.4 1010.2
13 21.08 С 6 35 км 6/3 300 м
[Cu Sc Ac trans]
+26.1 +14.5 49 +29 +31 жарко 1022.4 1010.2

 

Местоположение метеостанции Сисак (Хорватия): широта 45.50 долгота 16.37 высота над уровнем моря 106 м.

В архиве по умолчанию представлена погода в Сисаке за последнюю неделю. Архивные данные за месяц целиком и за предыдущие месяцы, начиная с января 2011 года, Вы можете получить, выбрав интересующий диапазон дат из раскрывающегося списка и нажав кнопку "Ввод!".


*Определитесь, кто Вы:
робот инопланетянин человек

Внимание! Время в таблицах - всемирное. Для получения местного времени необходимо прибавить поправку, которая равна 1 ч.

Смотрите также архив погоды в соседних городах и на ближайших метеорологических станциях:

Погода в Загреб аэропорту (Хорватия) (35 км)
Погода в Загребе (Хорватия) (44 км)
Погода в Бьеловаре (Хорватия) (45 км)
Погода в Загреб-Градеце (Хорватия) (47 км)
Погода в Пунтиярке (Хорватия) (56 км)
Погода в Крижевцах (Хорватия) (61 км)
Погода в Карловаце (Хорватия) (62 км)
Погода в Даруваре (Хорватия) (68 км)
Погода на Било-Горе (Хорватия) (77 км)
Погода в Церки-об-Крки (Словения) (80 км)

Пояснения к столбцам:

Ветер - указаны скорость ветра в м/с - средняя за 10 мин, порывы в срок и между сроками (в фигурных скобках) и направление, откуда дует ветер: С - северный, СВ - северо-восточный, В - восточный, ЮВ - юго-восточный, Ю - южный, ЮЗ - юго-западный, З - западный, СЗ - северо-западный.
Видимость - горизонтальная дальность видимости в метрах или километрах. При видимости от 1 до 10 км при отсутствии осадков обычно наблюдается дымка, при ухудшении видимости до 1 км и менее - туман. В сухую погоду видимость может ухудшаться дымом, пылью или мглою.
Явления - указаны атмосферные явления, наблюдавшиеся в срок или в последний час перед сроком; фигурными скобками обозначены явления, наблюдавшиеся между сроками (за 1-3 часа до срока); квадратными скобками обозначены град или гололедные отложения с указанием их диаметра в мм.
Облачность - указаны через наклонную черту общая и нижняя облачность в баллах и высота нижней границы облаков в метрах; квадратными скобками обозначены формы облаков: Ci - перистые, Cs - перисто-слоистые, Cc - перисто-кучевые, Ac - высококучевые, As - высокослоистые, Sc - слоисто-кучевые, Ns - слоисто-дождевые, Cu - кучевые, Cb - кучево-дождевые. Подробнее классификацию облаков см. в Атласе облаков (PDF).
T - Температура воздуха - температура, измеренная на высоте 2 м над землей.
Td - Температура точки росы - температура, при понижении до которой содержащийся в воздухе водяной пар достигнет насыщения.
f - Относительная влажность воздуха - влажноcть воздуха, измеренная на высоте 2 м над землей.
Te - Эффективная температура - температура, которую ощущает одетый по сезону человек в тени. Характеристика душности погоды. При расчете учитывается влияние влажности воздуха и скорости ветра на теплоощущения человека.
Tes - Эффективная температура на солнце - температура, которую ощущает человек, с поправкой на солнечный нагрев. Характеристика знойности погоды. Зависит от высоты солнца над горизонтом, облачности и скорости ветра. Ночью, в пасмурную погоду, а также при ветре 12 м/с и более поправка равна нулю.
P - Атмосферное давление - приведенное к уровню моря атмосферное давление.
Po - Атмосферное давление - измеренное на уровне метеостанции атмосферное давление.
Tmin - Минимальная температура - минимум температуры воздуха на высоте 2 м над землей.
Tmax - Максимальная температура - максимум температуры воздуха на высоте 2 м над землей.
R - Количество осадков - Количество выпавших осадков за период времени, мм. При наведении курсора мыши на число - период времени, за который выпало указанное количество осадков.
R24 - Количество осадков - Количество выпавших осадков за 24 часа, мм.
S - Снежный покров - Высота снежного покрова, см. При наведении курсора мыши на число - состояние снежного покрова и степень покрытия местности в баллах.